LARES (38077 NORAD) Tracking and Keplerian Element Data

This shows tracking and keplerian element data for the satellite.

Feedback or suggestion? Click here.




ElementValue
Catalog38077
NameLARES
Epoch Orbit59468
Epoch Day35.15246299
Epoch Year2025
RAAN62.9365
Inclination69.4897
Eccentricity0.0008039
Argument of Perigee168.3925
Mean Anonmoly191.7288
Mean Motion12.54931893
Decay Rate-4.8E-07
L11 38077U 12006A 25035.15246299 -.00000048 00000+0 -60580-4 0 9993
L22 38077 69.4897 62.9365 0008039 168.3925 191.7288 12.54931893594688



Live tracking and technical data element details for LARES (NORAD 38077). LARES can be tracked NOW for your location showing map with azimuth and elevation plus other details from your city location.







IsCatalogInMostPopularTable: catalog: 38077, numindb: 440
Update: records affected: 1



GetName: 38077 LARES

Hit Count: updated at: Thu, 15 May 2025 19:24:17 GMT